Beckley, WV

5:33 AM EDT on March 29, 2017 (GMT -0400)
Raleigh County Memorial

Weather History for KBKW - August, 2013

Change the Weather History Date:

Friday, August 23, 2013

  Actual Average Record
Temperature  
Mean Temperature 68 °F 69 °F  
Max Temperature 73 °F 79 °F 98 °F (1926)
Min Temperature 64 °F 60 °F 33 °F (1940)
Degree Days  
Heating Degree Days 0 0  
Month to date heating degree days 15 0  
Since 1 June heating degree days 27 47  
Since 1 July heating degree days 20 8  
Cooling Degree Days 4 5  
Month to date cooling degree days 94 128  
Year to date cooling degree days 491 461  
Since 1 June cooling degree days 424 420  
Growing Degree Days 18 (Base 50)    
Moisture  
Dew Point 64 °F    
Average Humidity 83    
Maximum Humidity 93    
Minimum Humidity 73    
Precipitation  
Precipitation 0.08 in 0.10 in 1.37 in (1937)
Month to date precipitation 4.80 2.76  
Year to date precipitation 29.62 28.95  
Snow  
Snow 0.00 in - - ()
Month to date snowfall 0.0  
Since 1 September snowfall 72.0  
Snow Depth 0.00 in    
Sea Level Pressure  
Sea Level Pressure 30.09 in    
Wind  
Wind Speed 2 mph (WNW)    
Max Wind Speed 7 mph    
Max Gust Speed -    
Visibility 4 miles    
Events Rain    
T = Trace of Precipitation, MM = Missing Value Source: NWS Daily Summary

Daily Weather History Graph

Daily Weather History Graph

Search for Another Location

Airport or City:

Trip Planner

Search our weather history database for the weather conditions in past years. The results will help you decide how hot, cold, wet, or windy it might be!

Date:

Astronomy

Aug. 23, 2013 Rise Set
Actual Time 6:47 AM EDT 8:06 PM EDT
Civil Twilight 6:19 AM EDT 8:33 PM EDT
Nautical Twilight 5:46 AM EDT 9:06 PM EDT
Astronomical Twilight 5:12 AM EDT 9:40 PM EDT
Moon 9:29 PM EDT (8/23) 9:36 AM EDT (8/23)
Length of Visible Light 14h 13m
Length of Day
13h 19m
Waning Gibbous, 91% of the Moon is Illuminated
Aug 23
Waning Gibbous
Aug 28
Last Quarter
Sep 5
New
Sep 12
First Quarter
Sep 19
Full

Hourly Weather History & Observations

Time (EDT) Temp. Dew Point Humidity Pressure Visibility Wind Dir Wind Speed Gust Speed Precip Events Conditions
12:51 AM 66.0 °F 64.0 °F 93% 30.04 in 4.0 mi Calm Calm - N/A   Clear
1:25 AM 64.4 °F 64.4 °F 100% 30.14 in 1.8 mi Calm Calm - N/A   Partly Cloudy
1:40 AM 66.2 °F 64.4 °F 94% 30.13 in 3.0 mi Calm Calm - N/A   Partly Cloudy
1:51 AM 66.0 °F 64.0 °F 93% 30.04 in 3.0 mi Calm Calm - N/A   Scattered Clouds
2:51 AM 66.9 °F 64.9 °F 93% 30.00 in 4.0 mi Calm Calm - N/A   Overcast
3:51 AM 66.9 °F 64.9 °F 93% 30.00 in 3.0 mi Calm Calm - N/A   Scattered Clouds
4:11 AM 66.2 °F 64.4 °F 94% 30.10 in 3.0 mi Calm Calm - N/A   Mostly Cloudy
4:20 AM 66.2 °F 64.4 °F 94% 30.11 in 2.5 mi Calm Calm - N/A   Mostly Cloudy
4:35 AM 66.2 °F 64.4 °F 94% 30.11 in 3.0 mi Calm Calm - N/A   Overcast
4:44 AM 66.2 °F 64.4 °F 94% 30.11 in 2.5 mi Calm Calm - N/A   Overcast
4:51 AM 66.0 °F 64.9 °F 96% 30.02 in 2.5 mi Calm Calm - N/A   Overcast
5:01 AM 66.2 °F 64.4 °F 94% 30.11 in 2.5 mi Calm Calm - N/A   Overcast
5:14 AM 66.2 °F 64.4 °F 94% 30.11 in 3.0 mi Calm Calm - N/A   Overcast
5:22 AM 66.2 °F 64.4 °F 94% 30.11 in 2.5 mi Calm Calm - N/A   Overcast
5:32 AM 66.2 °F 64.4 °F 94% 30.11 in 3.0 mi SW 3.5 mph - N/A   Overcast
5:51 AM 66.0 °F 64.0 °F 93% 30.01 in 3.0 mi Calm Calm - N/A   Mostly Cloudy
5:58 AM 66.2 °F 64.4 °F 94% 30.11 in 2.5 mi Calm Calm - N/A   Mostly Cloudy
6:11 AM 66.2 °F 64.4 °F 94% 30.11 in 2.5 mi Calm Calm - N/A   Mostly Cloudy
6:30 AM 66.2 °F 64.4 °F 94% 30.11 in 3.0 mi Calm Calm - N/A   Mostly Cloudy
6:51 AM 66.9 °F 64.9 °F 93% 30.03 in 3.0 mi Calm Calm - N/A   Overcast
7:23 AM 66.2 °F 64.4 °F 94% 30.12 in 3.0 mi WSW 4.6 mph - N/A   Overcast
7:26 AM 66.2 °F 64.4 °F 94% 30.12 in 2.5 mi West 3.5 mph - 0.00 in Rain Light Rain
7:33 AM 66.2 °F 64.4 °F 94% 30.13 in 1.2 mi North 12.7 mph - 0.00 in Rain Light Rain
7:41 AM 66.2 °F 64.4 °F 94% 30.13 in 0.8 mi NNW 3.5 mph - 0.05 in Rain Rain
7:44 AM 66.2 °F 64.4 °F 94% 30.13 in 1.0 mi North 3.5 mph - 0.06 in Rain Light Rain
7:51 AM 66.0 °F 64.9 °F 96% 30.04 in 2.0 mi Calm Calm - 0.06 in Rain Light Rain
8:01 AM 66.2 °F 64.4 °F 94% 30.13 in 2.5 mi NNW 4.6 mph - 0.00 in Rain Rain
8:10 AM 66.2 °F 64.4 °F 94% 30.13 in 3.0 mi North 3.5 mph - 0.02 in Rain Light Rain
8:39 AM 66.2 °F 64.4 °F 94% 30.14 in 6.0 mi Calm Calm - 0.02 in   Mostly Cloudy
8:51 AM 66.9 °F 63.0 °F 87% 30.06 in 7.0 mi NNW 4.6 mph - 0.02 in   Overcast
9:51 AM 68.0 °F 64.0 °F 87% 30.06 in 6.0 mi SW 4.6 mph - 0.00 in   Mostly Cloudy
10:32 AM 68.0 °F 64.4 °F 88% 30.15 in 4.0 mi WSW 4.6 mph - N/A   Overcast
10:51 AM 70.0 °F 64.9 °F 84% 30.06 in 5.0 mi WSW 6.9 mph - N/A   Haze
11:27 AM 71.6 °F 64.4 °F 78% 30.15 in 9.0 mi NW 6.9 mph - N/A   Overcast
11:48 AM 73.4 °F 64.4 °F 73% 30.14 in 10.0 mi NW 6.9 mph - N/A   Scattered Clouds
11:51 AM 73.9 °F 64.0 °F 71% 30.05 in 10.0 mi NW 6.9 mph - N/A   Scattered Clouds